Location: Boiro
(42.6475°N, 8.8834°W)
Time: 07:51:43
(UTC+01:00)

SR - Pass Details

Date: 03 December 2021
Orbit: 583 x 872 km, 66.7° (Epoch: 16 January)

Event Time Altitude Azimuth Distance (km) Brightness Sun altitude
Rises 01:22:51 0° 215° (SW) 3,012 - -69.4°
Reaches altitude 10° 01:25:14 10° 217° (SW) 2,058 - -69.5°
Maximum altitude 01:29:50 71° 302° (WNW) 659 - -69.4°
Drops below altitude 10° 01:34:11 10° 27° (NNE) 1,945 - -69.4°
Sets 01:36:24 0° 29° (NNE) 2,831 - -69.3°
